{"data":{"norad_id":54773,"intl_designator":"2022-175R","name":"STARLINK-5453","alt_names":[],"object_type":"PAYLOAD","status":"ACTIVE","operator":null,"country":"US","launch_date":"2022-12-17","launch_site_code":"AFETR","launch_vehicle":null,"mission":null,"orbit_class":"UNKNOWN","rcs_meters":null,"size_class":null,"mass_kg":null,"dimensions":null,"purposes":["comms"],"wikipedia_slug":null,"has_3d_model":false,"image_url":null,"decayed_at":null,"tle_current":{"epoch":"2026-09-20T11:23:43.477728Z","epoch_age_seconds":92077,"freshness":"FRESH","line1":"1 54773U 22175R   26263.47480877  .00000365  00000+0  21955-4 0  9996","line2":"2 54773  53.1605 237.9043 0001381  86.4590 273.6570 15.34390832209482","mean_motion":15.34390832,"eccentricity":0.0001381,"inclination_deg":53.1605,"raan_deg":237.9043,"arg_perigee_deg":86.459,"mean_anomaly_deg":273.657,"bstar":2.1955e-5,"rev_number":20948,"period_min":93.848318822593,"perigee_km":461.78576577054,"apogee_km":463.67521337116,"semimajor_km":6840.8674895709,"source":"CELESTRAK","updated_at":"2026-09-21T09:00:33.122836Z"}}}